Location: Olsztyn
(53.7767°N, 20.4765°E)
Time: 18:29:35
(UTC+02:00)

A-11 Canister half - Pass Details

Date: 24 January 2022
Orbit: 1513 x 1686 km, 47.2° (Epoch: 24 May)

Event Time Altitude Azimuth Distance (km) Brightness Sun altitude
Rises 16:36:51 0° 218° (SW) 4,754 12.9 -5.1°
Reaches altitude 10° 16:40:14 10° 211° (SSW) 3,748 12.0 -5.5°
Maximum altitude 16:48:33 37° 148° (SSE) 2,226 9.8 -6.6°
Drops below altitude 10° 16:56:43 10° 86° (E) 3,680 10.4 -7.7°
Enters shadow 16:57:32 - 84° (E) 3,917 10.5 -7.9°
